[[{"header":{"parameterUnit":"m.s-1","parameterCategory":1,"la1":30.2991,"la2":30.254,"lo1":-89.0895,"lo2":-89.0444,"dy":0.0017,"dx":0.0017,"nx":28,"ny":28,"refTime":"2025-01-24T03:00:00:Z","depth":0,"parameterNumber":2,"parameterNumberName":"U-component_of_WINDS"},"data":[0,0,0,0,0,0,0,0,0,0,0,0,0,0,0,0,0,0,0,0,0,0,0,0,0,0,0,0,0,0,0,0,0,0,0,0,0,0,0,0,0,0,0,0,0,0,0,0,0,0,0,0,0,0,0,0,0,0,2.2582,2.2582,0,2.2581,2.2581,2.2581,2.2519,2.2518,2.2516,2.2514,2.2514,2.2516,2.2517,0,0,0,0,0,0,0,0,0,0,0,0,0,2.2531,2.2532,2.2582,2.2582,2.2582,2.2581,2.2581,2.2581,2.252,2.2518,2.2516,2.2514,2.2514,2.2516,2.2517,0,0,0,0,0,0,0,0,0,0,0,0,0,2.2544,2.2533,2.2582,2.2551,2.2548,2.2581,2.2581,2.2581,2.252,2.2518,2.2515,2.2513,2.2513,2.2515,2.2518,2.258,0,0,2.2525,2.2526,0,0,0,0,0,0,0,0,2.2544,2.2546,2.2556,2.2553,2.255,2.2548,2.2563,2.2581,2.2521,2.2531,2.2514,2.2512,2.2528,2.2528,2.2534,2.258,2.258,2.2525,2.2526,2.2527,2.2528,0,0,0,0,0,0,0,2.2543,2.2546,2.2582,2.2556,2.2553,2.2538,2.2537,2.2566,2.2543,2.253,2.2525,2.2526,2.2526,2.2532,2.2533,2.258,2.2525,2.2527,2.2528,2.2529,2.2679,2.2682,0,0,0,0,0,0,2.2546,2.2545,2.2582,2.2582,2.2541,2.2541,2.254,2.2551,2.2542,2.2539,2.2528,2.2523,2.2529,2.2531,2.2533,2.2606,2.2527,2.2529,2.2531,2.2677,2.268,2.2683,0,0,0,0,0,0,2.2545,2.255,2.2582,2.2562,2.2565,2.2544,2.2557,2.2552,2.2558,2.2541,2.2537,2.2538,2.2527,2.253,2.2569,2.2605,2.253,2.2532,2.2674,2.2678,2.2681,2.2753,0,0,0,0,0,0,2.2544,2.255,2.2573,2.2563,2.2567,2.2618,2.256,2.2554,2.2562,2.2556,2.255,2.2546,2.2525,2.2566,2.2571,2.2607,2.2534,2.267,2.2675,2.268,2.2748,2.2759,2.2769,0,0,0,0,0,2.2542,2.2593,2.2575,2.2579,2.2595,2.262,2.2622,2.2597,2.2566,2.2589,2.2578,2.2547,2.2601,2.2571,2.2576,2.2613,2.2668,2.2674,2.268,2.2743,2.2757,2.2769,0,0,0,0,0,0,2.2608,2.2591,2.257,2.262,2.2622,2.261,2.2638,2.2612,2.2623,2.2617,2.2585,2.2584,2.2629,2.2625,2.2592,2.2674,2.2629,2.2636,2.2675,2.2688,2.2699,2.2699,2.2536,0,0,0,0,0,2.2628,2.2649,2.2634,2.2679,2.2681,2.266,2.267,2.265,2.2651,2.2652,2.2643,2.2646,2.2663,2.2675,2.269,2.2747,2.2745,2.2775,2.2786,2.2795,2.2802,2.2832,2.2845,2.2702,2.2702,2.2702,0,0,2.267,2.2664,2.2679,2.2692,2.2691,2.2715,2.2661,2.2688,2.2705,2.2656,2.2692,2.2687,2.2687,2.2736,2.2757,2.2734,2.2841,2.2802,2.281,2.2812,2.2839,2.2853,2.2865,2.2706,2.2706,2.2705,0,0,2.2758,2.2755,2.2793,2.2794,2.2793,2.2779,2.2788,2.278,2.2774,2.2811,2.2775,2.2795,2.2825,2.2828,2.2833,2.2923,2.2895,2.2929,2.2986,2.3016,2.3027,2.3037,2.307,2.3082,2.2936,2.2936,2.2936,0,2.281,2.2844,2.2816,2.2845,2.2852,2.2809,2.2847,2.2849,2.2854,2.286,2.2834,2.2873,2.287,2.2919,2.2941,2.2946,2.2956,2.293,2.3027,2.3037,2.3046,2.3077,2.3089,2.294,2.294,2.2939,2.2939,0,2.2909,2.2932,2.2963,2.2969,2.2979,2.3013,2.2991,2.3005,2.2985,2.2973,2.3012,2.3007,2.3021,2.3031,2.3011,2.3077,2.3063,2.3033,2.2987,2.3064,2.3093,2.3104,2.2946,2.2945,2.2943,2.2942,0,0,2.3038,2.3028,2.304,2.3043,2.304,2.3058,2.309,2.3103,2.3116,2.3121,2.3148,2.3175,2.3148,2.3154,2.3134,2.316,2.3233,2.3127,2.3126,2.3147,2.3307,2.333,2.3344,2.3214,2.3217,2.3218,2.3307,0,2.3124,2.3178,2.3154,2.3211,2.3233,2.3193,2.3221,2.3223,2.3213,2.3231,2.322,2.324,2.3202,2.3205,2.3229,2.3219,2.3265,2.3213,2.3239,2.3241,2.3241,2.3359,2.3383,2.3466,2.3318,2.332,2.3321,0,2.3232,2.3241,2.3301,2.3294,2.3303,2.3329,2.3339,2.3357,2.3358,2.3349,2.3356,2.3331,2.3362,2.3317,2.336,2.3325,2.3335,2.3332,2.3334,2.3336,2.3286,2.3364,2.3492,2.3505,2.3338,2.3337,2.3335,0,2.3321,2.3349,2.3388,2.3392,2.3385,2.3404,2.3402,2.3401,2.3411,2.3421,2.3427,2.344,2.3448,2.3459,2.3438,2.3407,2.3485,2.3437,2.3479,2.348,2.3497,2.3497,2.363,2.3503,2.3503,2.3503,2.3502,0,2.342,2.3458,2.3428,2.3453,2.3494,2.3467,2.3509,2.3503,2.3502,2.3525,2.349,2.3513,2.3483,2.3503,2.3487,2.3526,2.3529,2.3523,2.3519,2.3527,2.3528,2.3533,2.3527,2.3506,2.3505,2.3505,2.3504,0,2.3527,2.3509,2.3549,2.354,2.3538,2.357,2.3562,2.3584,2.3572,2.3601,2.3607,2.3588,2.3609,2.359,2.361,2.3599,2.3651,2.3638,2.3651,2.3647,2.369,2.3687,2.3832,2.3849,2.3711,2.3713,2.3714,0,2.3592,2.362,2.3614,2.3627,2.3627,2.3648,2.3658,2.3632,2.3644,2.3648,2.367,2.3689,2.3702,2.3738,2.3726,2.3742,2.3729,2.3779,2.3731,2.3738,2.373,2.3729,2.3732,2.3788,2.379,2.3791,2.3792,0,2.3709,2.3698,2.3714,2.3727,2.3741,2.375,2.3756,2.3768,2.3742,2.3757,2.3778,2.3789,2.3809,2.3828,2.384,2.3838,2.3812,2.3808,2.3818,2.3827,2.3833,2.3831,2.3678,2.3804,2.3803,2.3802,2.3802,2.3801,2.3797,2.3821,2.382,2.3839,2.3841,2.3848,2.3869,2.386,2.3877,2.3892,2.3876,2.3902,2.3903,2.3916,2.3918,2.3938,2.3918,2.3933,2.3937,2.3941,2.3947,2.383,2.394,2.394,2.394,2.3939,2.3939,0,2.3913,2.3911,2.3928,2.3939,2.3954,2.3927,2.3933,2.3947,2.3971,2.3974,2.3988,2.4013,2.4031,2.4021,2.4037,2.4056,2.4044,2.4061,2.4059,2.4059,2.3965,2.3954,2.407,2.407,2.407,2.407,2.407,2.407,2.3975,2.4014,2.4003,2.4043,2.4041,2.4066,2.4072,2.4079,2.4081,2.411,2.4125,2.4119,2.4117,2.4133,2.4148,2.4145,2.4153,2.4174,2.4167,2.4079,2.4066,2.4054,2.4044,2.4176,2.4176,2.426,2.426,2.4261]},{"header":{"parameterUnit":"m.s-1","parameterCategory":1,"la1":30.2991,"la2":30.254,"lo1":-89.0895,"lo2":-89.0444,"dy":0.0017,"dx":0.0017,"nx":28,"ny":28,"refTime":"2025-01-24T03:00:00:Z","depth":0,"parameterNumber":3,"parameterNumberName":"V-component_of_WINDS"},"data":[0,0,0,0,0,0,0,0,0,0,0,0,0,0,0,0,0,0,0,0,0,0,0,0,0,0,0,0,0,0,0,0,0,0,0,0,0,0,0,0,0,0,0,0,0,0,0,0,0,0,0,0,0,0,0,0,0,0,-2.154,-2.1541,0,-2.1652,-2.1653,-2.1654,-2.1642,-2.164,-2.1638,-2.1636,-2.1751,-2.1756,-2.1761,0,0,0,0,0,0,0,0,0,0,0,0,0,-2.1319,-2.1323,-2.154,-2.1542,-2.1543,-2.1651,-2.1653,-2.1654,-2.1642,-2.164,-2.1638,-2.1636,-2.175,-2.1755,-2.1761,0,0,0,0,0,0,0,0,0,0,0,0,0,-2.1421,-2.1324,-2.154,-2.155,-2.1552,-2.1651,-2.1653,-2.1655,-2.1642,-2.164,-2.1637,-2.1634,-2.1748,-2.1755,-2.1762,-2.1859,0,0,-2.1783,-2.1786,0,0,0,0,0,0,0,0,-2.1415,-2.1429,-2.1547,-2.1549,-2.1552,-2.163,-2.1617,-2.1723,-2.1643,-2.1608,-2.1636,-2.1633,-2.1713,-2.1723,-2.175,-2.1864,-2.1869,-2.1784,-2.1788,-2.1791,-2.1793,0,0,0,0,0,0,0,-2.1408,-2.1424,-2.1584,-2.1549,-2.1552,-2.1549,-2.1561,-2.1637,-2.1674,-2.1611,-2.161,-2.1623,-2.1714,-2.1743,-2.1752,-2.1871,-2.1784,-2.179,-2.1794,-2.1797,-2.2073,-2.2076,0,0,0,0,0,0,-2.1398,-2.1419,-2.1581,-2.1588,-2.1475,-2.1555,-2.1568,-2.1608,-2.1673,-2.1681,-2.1626,-2.1622,-2.1732,-2.1744,-2.1756,-2.1876,-2.1791,-2.1798,-2.1802,-2.207,-2.2074,-2.2077,0,0,0,0,0,0,-2.1394,-2.1413,-2.1576,-2.1503,-2.1524,-2.1562,-2.1606,-2.1611,-2.164,-2.1684,-2.1691,-2.1648,-2.173,-2.1746,-2.1834,-2.188,-2.1801,-2.1808,-2.2066,-2.2071,-2.2075,-2.2115,0,0,0,0,0,0,-2.1387,-2.1411,-2.1448,-2.1504,-2.1528,-2.1652,-2.1609,-2.1615,-2.1652,-2.1649,-2.1708,-2.1715,-2.173,-2.1823,-2.1841,-2.1888,-2.1813,-2.2062,-2.2068,-2.2074,-2.211,-2.2121,-2.213,0,0,0,0,0,-2.138,-2.1455,-2.145,-2.147,-2.1574,-2.1654,-2.1668,-2.1683,-2.1656,-2.1694,-2.1723,-2.1713,-2.1872,-2.1832,-2.1852,-2.1902,-2.206,-2.2067,-2.2073,-2.2106,-2.2119,-2.213,0,0,0,0,0,0,-2.1403,-2.1462,-2.1458,-2.1553,-2.1599,-2.1652,-2.17,-2.1696,-2.1751,-2.1746,-2.1763,-2.1776,-2.1865,-2.1892,-2.1847,-2.2001,-2.1962,-2.1973,-2.198,-2.1993,-2.2002,-2.1995,-2.1819,0,0,0,0,0,-2.1419,-2.1479,-2.1527,-2.1607,-2.163,-2.1661,-2.1696,-2.1704,-2.1753,-2.1772,-2.1807,-2.1855,-2.1916,-2.1955,-2.2014,-2.2114,-2.2127,-2.2158,-2.2168,-2.2176,-2.2186,-2.2243,-2.2258,-2.21,-2.21,-2.21,0,0,-2.1454,-2.1493,-2.153,-2.1613,-2.1649,-2.1711,-2.1677,-2.1744,-2.1791,-2.1782,-2.1868,-2.1895,-2.1949,-2.2044,-2.2088,-2.207,-2.2232,-2.2184,-2.219,-2.2196,-2.2251,-2.2266,-2.228,-2.2105,-2.2104,-2.2103,0,0,-2.1548,-2.1583,-2.1655,-2.1692,-2.1748,-2.1768,-2.1785,-2.184,-2.1858,-2.1943,-2.1939,-2.1995,-2.2099,-2.2138,-2.2172,-2.2283,-2.2277,-2.2302,-2.2354,-2.241,-2.2422,-2.2433,-2.2475,-2.2489,-2.2311,-2.2311,-2.2311,0,-2.1584,-2.1677,-2.1692,-2.176,-2.1797,-2.1792,-2.1865,-2.1901,-2.1973,-2.1999,-2.1978,-2.2109,-2.2145,-2.225,-2.2278,-2.2305,-2.2326,-2.2296,-2.2419,-2.243,-2.2441,-2.2481,-2.2496,-2.2314,-2.2314,-2.2314,-2.2313,0,-2.172,-2.1785,-2.1835,-2.1905,-2.1948,-2.2018,-2.2044,-2.2086,-2.2091,-2.2114,-2.2202,-2.2245,-2.2313,-2.2339,-2.2343,-2.2445,-2.2433,-2.2415,-2.2377,-2.2458,-2.2497,-2.2512,-2.2318,-2.2317,-2.2316,-2.2316,0,0,-2.1833,-2.191,-2.1929,-2.1962,-2.2023,-2.2074,-2.2145,-2.2211,-2.2248,-2.2298,-2.2358,-2.2447,-2.2432,-2.247,-2.2479,-2.2528,-2.2616,-2.2504,-2.2506,-2.2525,-2.2733,-2.2748,-2.2765,-2.2612,-2.2615,-2.2617,-2.273,0,-2.1935,-2.206,-2.2075,-2.2186,-2.2248,-2.2244,-2.2306,-2.2351,-2.2375,-2.2431,-2.2457,-2.252,-2.2494,-2.2517,-2.2565,-2.2595,-2.2658,-2.2587,-2.267,-2.2673,-2.2658,-2.2785,-2.28,-2.2904,-2.2744,-2.2747,-2.2749,0,-2.2071,-2.2125,-2.2243,-2.2298,-2.2324,-2.2379,-2.2443,-2.2495,-2.2547,-2.2561,-2.2605,-2.2608,-2.2683,-2.264,-2.2744,-2.2695,-2.273,-2.275,-2.2755,-2.2764,-2.2717,-2.28,-2.2937,-2.2954,-2.2772,-2.277,-2.2768,0,-2.2144,-2.2246,-2.2331,-2.2358,-2.2424,-2.2463,-2.2493,-2.2541,-2.2581,-2.2636,-2.2663,-2.2726,-2.2761,-2.281,-2.2831,-2.2798,-2.2935,-2.2894,-2.295,-2.295,-2.298,-2.2978,-2.3127,-2.2999,-2.2999,-2.2999,-2.2998,0,-2.2258,-2.233,-2.2365,-2.2417,-2.2498,-2.2516,-2.2596,-2.2624,-2.2668,-2.2726,-2.2727,-2.2781,-2.2805,-2.2864,-2.2881,-2.2965,-2.298,-2.2995,-2.2999,-2.2996,-2.2995,-2.302,-2.3015,-2.3003,-2.3002,-2.3001,-2.3,0,-2.2354,-2.2379,-2.2471,-2.2526,-2.2542,-2.26,-2.2647,-2.2698,-2.2721,-2.2795,-2.2813,-2.285,-2.292,-2.2945,-2.3029,-2.3041,-2.314,-2.3137,-2.3122,-2.3124,-2.318,-2.3175,-2.3352,-2.3377,-2.3231,-2.3232,-2.3233,0,-2.2425,-2.2481,-2.2542,-2.2581,-2.2612,-2.2675,-2.2715,-2.2735,-2.2778,-2.2842,-2.2885,-2.2954,-2.3011,-2.3122,-2.3157,-2.3222,-2.3222,-2.3279,-2.3232,-2.3228,-2.3226,-2.3223,-2.323,-2.3289,-2.329,-2.3291,-2.3292,0,-2.2551,-2.2561,-2.2619,-2.2683,-2.2732,-2.2783,-2.2832,-2.2864,-2.2891,-2.2939,-2.3011,-2.3054,-2.3141,-2.3211,-2.3278,-2.3308,-2.3306,-2.3307,-2.3324,-2.3323,-2.3313,-2.3321,-2.3149,-2.3303,-2.3302,-2.3301,-2.3301,-2.33,-2.2638,-2.2689,-2.274,-2.2806,-2.2845,-2.2892,-2.2943,-2.2973,-2.3033,-2.3105,-2.3113,-2.319,-2.3242,-2.3331,-2.3366,-2.3427,-2.3411,-2.3435,-2.3442,-2.3448,-2.3453,-2.3302,-2.3439,-2.3439,-2.3438,-2.3438,-2.3438,0,-2.2766,-2.2799,-2.2859,-2.2929,-2.2981,-2.2973,-2.3028,-2.3072,-2.314,-2.3188,-2.3244,-2.3327,-2.3395,-2.3435,-2.3503,-2.3545,-2.3546,-2.3562,-2.3561,-2.3568,-2.3462,-2.3441,-2.3561,-2.3561,-2.3561,-2.3561,-2.3561,-2.3561,-2.2838,-2.2924,-2.294,-2.3046,-2.3079,-2.3154,-2.3187,-2.323,-2.3269,-2.3362,-2.3418,-2.3444,-2.349,-2.3561,-2.3624,-2.3634,-2.366,-2.3678,-2.3688,-2.3588,-2.3575,-2.3563,-2.3544,-2.3683,-2.3684,-2.3789,-2.379,-2.3791]}]]